Orbital Elements at Epoch 2459000.5 (2020-May-31.0) TDB
Reference: JPL 16 (heliocentric ecliptic J2000)
Element | Value | Uncertainty (1-sigma) | Units |
e | .2053696589648163 | 8.7146e-08 | |
a | 3.181489868615448 | 7.0292e-08 | au |
q | 2.528108379297874 | 3.1986e-07 | au |
i | 6.257289929430681 | 5.6371e-06 | deg |
node | 94.79684463744542 | 6.5327e-05 | deg |
peri | 258.819660980473 | 6.7095e-05 | deg |
M | 310.2678073213805 | 1.4371e-05 | deg |
tp | 2459286.838239560452 (2021-Mar-13.33823956) | 8.6614e-05 | TDB |
period | 2072.737208831712 5.67 | 6.8692e-05 1.881e-07 | d yr |
n | .1736833779342979 | 5.756e-09 | deg/d |
Q | 3.834871357933021 | 8.4727e-08 | au |
|
| | Orbit Determination Parameters
Additional Information
|